Regional Weather Roundup
Issued by NWS

Home | Current Version | Previous Version | Graphics & Text | Print | Product List | Glossary On
Versions: 1 2 3 4 5 6 7 8 9 10 11 12 13 14 15 16 17 18 19 20 21 22 23 24 25 26 27 28 29 30 31 32 33 34 35 36 37 38 39 40 41 42 43 44 45 46 47 48 49 50
000
ASUS43 KTOP 051759
RWRKS

WEATHER ROUNDUP FOR KANSAS
NATIONAL WEATHER SERVICE GOODLAND KS
1200 PM CST THU MAR 05 2015

NOTE:  "FAIR" INDICATES FEW OR NO CLOUDS BELOW 12,000 FEET WITH NO
SIGNIFICANT WEATHER AND/OR OBSTRUCTIONS TO VISIBILITY.

KSZ001>006-013>018-027>032-041>047-051900-
NORTHWEST KANSAS

CITY           SKY/WX    TMP DP  RH WIND       PRES   REMARKS
GOODLAND       SUNNY     41  11  29 SW9       30.30F
6HR MIN TEMP:  13; 6HR MAX TEMP:  42;

HAYS           FAIR      37  10  32 SW6       30.41F
HILL CITY      FAIR      36  11  35 VRB5      30.39F
6HR MIN TEMP:   3; 6HR MAX TEMP:  36;

RUSSELL        FAIR      36  14  40 VRB3      30.41F
6HR MIN TEMP:   9; 6HR MAX TEMP:  36;

$$

KSZ061>065-074>080-084>089-051900-
SOUTHWEST KANSAS

CITY           SKY/WX    TMP DP  RH WIND       PRES   REMARKS
DODGE CITY     FAIR      38  14  37 SW14      30.41F WCI  30
6HR MIN TEMP:  17; 6HR MAX TEMP:  39;

ELKHART          N/A     41  14  33 SW8         N/A
GARDEN CITY    FAIR      37  15  40 SW13      30.38F WCI  29
6HR MIN TEMP:  12; 6HR MAX TEMP:  39;

GREAT BEND     FAIR      37  14  38 SW6       30.44S
LIBERAL        FAIR      32  21  64 SW13      30.42F WCI  22
$$

KSZ066>073-081>083-090>101-051900-
SOUTHEAST KANSAS

CITY           SKY/WX    TMP DP  RH WIND       PRES   REMARKS
CHANUTE        FAIR      31  10  41 VRB3      30.56F
6HR MIN TEMP:  14; 6HR MAX TEMP:  31;

COFFEYVILLE    FAIR      32  11  41 CALM      30.58F
6HR MIN TEMP:  13; 6HR MAX TEMP:  32;

HUTCHINSON     FAIR      34  16  47 S8        30.48F
6HR MIN TEMP:   8; 6HR MAX TEMP:  34;

MEDICINE LODGE   N/A     40  14  34 W10G20    30.48F WCI  33
NEWTON         FAIR      30  14  51 S12       30.50F WCI  21
PARSONS        FAIR      33  12  41 CALM      30.58F
6HR MIN TEMP:  10; 6HR MAX TEMP:  33;

WICHITA INTL   FAIR      37  15  40 W9        30.50F
6HR MIN TEMP:  10; 6HR MAX TEMP:  37;

WICHITA JABRA  FAIR      36  14  40 SW10      30.50F WCI  28
6HR MIN TEMP:  12; 6HR MAX TEMP:  36;

WINFIELD       FAIR      38  13  35 SW9       30.54F
6HR MIN TEMP:  12; 6HR MAX TEMP:  38;

$$

KSZ007>012-019>026-033>040-048>060-102>105-051900-
NORTHEAST KANSAS

CITY           SKY/WX    TMP DP  RH WIND       PRES   REMARKS
CONCORDIA      FAIR      29   6  38 S10       30.47F WCI  20
6HR MIN TEMP:   5; 6HR MAX TEMP:  29;

EMPORIA        FAIR      28   9  44 VRB6      30.53F
6HR MIN TEMP:   9; 6HR MAX TEMP:  28;

LAWRENCE       FAIR      25   0  33 CALM      30.58F
6HR MIN TEMP:   4; 6HR MAX TEMP:  26;

MANHATTAN      FAIR      29   4  34 VRB5      30.53F
6HR MIN TEMP:  10; 6HR MAX TEMP:  30;

OLATHE IND     FAIR      25   3  38 NE6       30.56F
6HR MIN TEMP:   6; 6HR MAX TEMP:  25;

OLATHE EXE     FAIR      24  -1  33 CALM      30.55F
6HR MIN TEMP:  11; 6HR MAX TEMP:  24;

SALINA         FAIR      35   9  33 SE8       30.49F
6HR MIN TEMP:  13; 6HR MAX TEMP:  35;

TOPEKA BILLARD FAIR      24   2  38 CALM      30.57F
6HR MIN TEMP:  10; 6HR MAX TEMP:  27;

TOPEKA FORBES  FAIR      27   3  35 SE5       30.55F
6HR MIN TEMP:   9; 6HR MAX TEMP:  27;

$$


USA.gov is the U.S. government's official web portal to all federal, state and local government web resources and services.